Bogalusa, LA

1:46 PM CDT on September 21, 2017 (GMT -0500)
Carr Memorial

Weather History for KBXA - November, 2012

Change the Weather History Date:

Saturday, November 24, 2012

  Actual Average Record
Temperature  
Mean Temperature 45 °F -  
Max Temperature 58 °F 67 °F 80 °F (2016)
Min Temperature 31 °F 44 °F 34 °F (2015)
Degree Days  
Heating Degree Days 20    
Moisture  
Dew Point 34 °F    
Average Humidity 70    
Maximum Humidity 100    
Minimum Humidity 32    
Precipitation  
Precipitation 0.00 in - - ()
Sea Level Pressure  
Sea Level Pressure 30.26 in    
Wind  
Wind Speed 4 mph ()    
Max Wind Speed 9 mph    
Max Gust Speed -    
Visibility 10.0 miles    
Events      
Averages and records for this station are not official NWS values.
T = Trace of Precipitation, MM = Missing Value Source: Averaged Metar Reports

Daily Weather History Graph

Daily Weather History Graph

Search for Another Location

Airport or City:

Trip Planner

Search our weather history database for the weather conditions in past years. The results will help you decide how hot, cold, wet, or windy it might be!

Date:

Astronomy

Nov. 24, 2012 Rise Set
Actual Time 6:34 AM CST 4:58 PM CST
Civil Twilight 6:08 AM CST 5:24 PM CST
Nautical Twilight 5:38 AM CST 5:53 PM CST
Astronomical Twilight 5:09 AM CST 6:22 PM CST
Moon 2:33 PM CST (11/24) 3:02 AM CST (11/24)
Length of Visible Light 11h 16m
Length of Day
10h 24m
Waxing Gibbous, 87% of the Moon is Illuminated
Nov 24
Waxing Gibbous
Nov 28
Full
Dec 6
Last Quarter
Dec 13
New
Dec 19
First Quarter

Hourly Weather History & Observations

Time (CST) Temp. Windchill Dew Point Humidity Pressure Visibility Wind Dir Wind Speed Gust Speed Precip Events Conditions
12:15 AM 51.4 °F - 40.3 °F 66% 30.25 in 10.0 mi North 4.6 mph - N/A   Unknown
12:35 AM 50.5 °F - 40.1 °F 67% 30.25 in 10.0 mi North 4.6 mph - N/A   Clear
12:55 AM 48.9 °F - 40.1 °F 72% 30.25 in 10.0 mi North 3.5 mph - N/A   Unknown
1:15 AM 48.4 °F - 40.5 °F 74% 30.25 in 10.0 mi NNW 3.5 mph - N/A   Unknown
1:35 AM 46.0 °F 44.8 °F 39.0 °F 76% 30.25 in 10.0 mi NNW 3.5 mph - N/A   Unknown
2:15 AM 46.4 °F 43.5 °F 38.3 °F 73% 30.26 in 10.0 mi North 5.8 mph - N/A   Unknown
2:35 AM 46.2 °F 43.3 °F 38.3 °F 74% 30.26 in 10.0 mi North 5.8 mph - N/A   Unknown
2:55 AM 45.5 °F 42.5 °F 38.1 °F 75% 30.26 in 10.0 mi North 5.8 mph - N/A   Unknown
3:15 AM 44.1 °F 42.5 °F 37.0 °F 76% 30.26 in 10.0 mi North 3.5 mph - N/A   Unknown
3:35 AM 43.7 °F 40.3 °F 37.0 °F 77% 30.27 in 10.0 mi North 5.8 mph - N/A   Unknown
3:55 AM 43.7 °F 40.3 °F 36.7 °F 76% 30.27 in 10.0 mi North 5.8 mph - N/A   Unknown
4:15 AM 43.0 °F 39.5 °F 36.0 °F 76% 30.28 in 10.0 mi North 5.8 mph - N/A   Unknown
4:35 AM 42.8 °F 39.3 °F 35.4 °F 75% 30.28 in 10.0 mi North 5.8 mph - N/A   Unknown
4:55 AM 43.0 °F 40.3 °F 35.2 °F 74% 30.29 in 10.0 mi North 4.6 mph - N/A   Unknown
5:15 AM 42.1 °F 39.2 °F 34.7 °F 75% 30.29 in 10.0 mi North 4.6 mph - N/A   Unknown
5:35 AM 41.9 °F 40.0 °F 34.7 °F 76% 30.30 in 10.0 mi North 3.5 mph - N/A   Unknown
5:55 AM 40.6 °F - 34.3 °F 78% 30.31 in 10.0 mi Calm Calm - N/A   Unknown
6:15 AM 39.0 °F 35.7 °F 33.4 °F 80% 30.31 in 10.0 mi North 4.6 mph - N/A   Unknown
6:35 AM 38.5 °F 35.0 °F 34.2 °F 84% 30.31 in 10.0 mi North 4.6 mph - N/A   Unknown
6:55 AM 38.3 °F 32.5 °F 35.2 °F 89% 30.32 in 10.0 mi North 8.1 mph - N/A   Unknown
7:15 AM 38.3 °F 34.8 °F 33.8 °F 84% 30.33 in 10.0 mi North 4.6 mph - N/A   Unknown
7:35 AM 39.4 °F 37.2 °F 34.3 °F 82% 30.33 in 10.0 mi North 3.5 mph - N/A   Unknown
7:55 AM 42.1 °F 38.4 °F 34.9 °F 76% 30.34 in 10.0 mi North 5.8 mph - N/A   Unknown
8:15 AM 43.5 °F 39.4 °F 34.3 °F 70% 30.34 in 10.0 mi North 6.9 mph - N/A   Clear
8:35 AM 44.6 °F 40.7 °F 34.2 °F 67% 30.34 in 10.0 mi NNE 6.9 mph - N/A   Clear
9:15 AM 46.9 °F - 33.1 °F 59% 30.34 in 10.0 mi NNE 8.1 mph - N/A   Clear
9:35 AM 47.8 °F - 32.5 °F 55% 30.34 in 10.0 mi NE 9.2 mph - N/A   Clear
9:55 AM 49.5 °F - 33.1 °F 53% 30.34 in 10.0 mi North 5.8 mph - N/A   Clear
10:15 AM 50.2 °F - 32.2 °F 50% 30.34 in 10.0 mi NE 9.2 mph - N/A   Clear
10:35 AM 50.7 °F - 32.5 °F 50% 30.34 in 10.0 mi North 5.8 mph - N/A   Clear
11:15 AM 52.9 °F - 32.0 °F 45% 30.32 in 10.0 mi NNE 4.6 mph - N/A   Clear
11:35 AM 54.3 °F - 32.4 °F 43% 30.31 in 10.0 mi NNE 8.1 mph - N/A   Clear
11:55 AM 54.0 °F - 31.8 °F 43% 30.29 in 10.0 mi North 9.2 mph - N/A   Clear
12:15 PM 55.8 °F - 31.6 °F 40% 30.28 in 10.0 mi NNE 9.2 mph - N/A   Clear
12:35 PM 56.1 °F - 30.7 °F 38% 30.27 in 10.0 mi North 4.6 mph - N/A   Clear
1:15 PM 57.4 °F - 29.5 °F 35% 30.25 in 10.0 mi North 4.6 mph - N/A   Clear
1:35 PM 57.7 °F - 30.0 °F 35% 30.24 in 10.0 mi North 9.2 mph - N/A   Clear
1:55 PM 57.9 °F - 29.1 °F 33% 30.24 in 10.0 mi North 9.2 mph - N/A   Unknown
2:15 PM 58.1 °F - 28.9 °F 33% 30.23 in 10.0 mi North 9.2 mph - N/A   Unknown
2:35 PM 57.7 °F - 27.7 °F 32% 30.22 in 10.0 mi NW 8.1 mph - N/A   Unknown
2:55 PM 57.7 °F - 27.9 °F 32% 30.22 in 10.0 mi NNW 6.9 mph - N/A   Unknown
3:15 PM 57.9 °F - 29.1 °F 33% 30.22 in 10.0 mi North 8.1 mph - N/A   Unknown
3:35 PM 57.4 °F - 29.1 °F 34% 30.21 in 10.0 mi NNW 9.2 mph - N/A   Unknown
3:55 PM 57.0 °F - 29.8 °F 36% 30.21 in 10.0 mi NNW 5.8 mph - N/A   Unknown
4:15 PM 56.3 °F - 29.5 °F 36% 30.22 in 10.0 mi NNW 4.6 mph - N/A   Unknown
4:35 PM 54.3 °F - 32.0 °F 43% 30.22 in 10.0 mi NNW 3.5 mph - N/A   Unknown
4:55 PM 51.8 °F - 36.5 °F 56% 30.22 in 10.0 mi NNW 3.5 mph - N/A   Unknown
5:15 PM 46.9 °F - 37.9 °F 71% 30.22 in 10.0 mi North 3.5 mph - N/A   Unknown
5:35 PM 45.7 °F 44.4 °F 38.7 °F 76% 30.22 in 10.0 mi North 3.5 mph - N/A   Unknown
5:55 PM 43.7 °F 42.1 °F 37.6 °F 79% 30.22 in 10.0 mi North 3.5 mph - N/A   Unknown
6:15 PM 43.5 °F - 37.6 °F 80% 30.22 in 10.0 mi Calm Calm - N/A   Unknown
6:35 PM 41.9 °F - 36.0 °F 79% 30.23 in 10.0 mi Calm Calm - N/A   Unknown
6:55 PM 41.5 °F - 35.4 °F 79% 30.23 in 10.0 mi Calm Calm - N/A   Unknown
7:15 PM 39.9 °F - 39.7 °F 99% 30.23 in 10.0 mi Calm Calm - N/A   Unknown
7:35 PM 39.7 °F - 39.7 °F 100% 30.23 in 10.0 mi Calm Calm - N/A   Unknown
8:15 PM 37.8 °F - 37.8 °F 100% 30.23 in 10.0 mi Calm Calm - N/A   Unknown
8:35 PM 37.6 °F - 37.6 °F 100% 30.23 in 10.0 mi Calm Calm - N/A   Unknown
8:55 PM 36.5 °F - 36.5 °F 100% 30.23 in 10.0 mi Calm Calm - N/A   Unknown
9:15 PM 35.1 °F - 35.1 °F 100% 30.23 in 10.0 mi Calm Calm - N/A   Unknown
9:35 PM 35.4 °F - 35.4 °F 100% 30.23 in 10.0 mi Calm Calm - N/A   Clear
9:55 PM 34.9 °F - 34.9 °F 100% 30.23 in 10.0 mi Calm Calm - N/A   Clear
10:15 PM 34.0 °F - 34.0 °F 100% 30.23 in 10.0 mi Calm Calm - N/A   Clear
10:35 PM 33.3 °F - 33.3 °F 100% 30.22 in 10.0 mi Calm Calm - N/A   Clear
10:55 PM 33.4 °F - 33.4 °F 100% 30.22 in 10.0 mi Calm Calm - N/A   Clear
11:15 PM 33.6 °F - 33.6 °F 100% 30.22 in 10.0 mi Calm Calm - N/A   Clear
11:35 PM 32.2 °F - 32.2 °F 100% 30.21 in 10.0 mi Calm Calm - N/A   Clear
11:55 PM 31.1 °F - 31.1 °F 100% 30.21 in 10.0 mi Calm Calm - N/A   Clear